[[{"header":{"parameterUnit":"m.s-1","parameterCategory":1,"la1":30.2991,"la2":30.254,"lo1":-89.0895,"lo2":-89.0444,"dy":0.0017,"dx":0.0017,"nx":28,"ny":28,"refTime":"2024-03-02T09:00:00:Z","depth":0,"parameterNumber":2,"parameterNumberName":"U-component_of_WINDS"},"data":[0,0,0,0,0,0,0,0,0,0,0,0,0,0,0,0,0,0,0,0,0,0,0,0,0,0,0,0,0,0,0,0,0,0,0,0,0,0,0,0,0,0,0,0,0,0,0,0,0,0,0,0,0,0,0,0,0,0,-3.8405,-3.8405,0,-3.8379,-3.8378,-3.8378,-3.8283,-3.828,-3.8278,-3.8276,-3.825,-3.8251,-3.8253,0,0,0,0,0,0,0,0,0,0,0,0,0,-3.8376,-3.8377,-3.8405,-3.8405,-3.8404,-3.8379,-3.8378,-3.8378,-3.8283,-3.828,-3.8278,-3.8275,-3.825,-3.8251,-3.8253,0,0,0,0,0,0,0,0,0,0,0,0,0,-3.8373,-3.8377,-3.8405,-3.8354,-3.8349,-3.8379,-3.8378,-3.8378,-3.8284,-3.828,-3.8277,-3.8274,-3.8249,-3.8251,-3.8253,-3.833,0,0,-3.8259,-3.826,0,0,0,0,0,0,0,0,-3.8373,-3.8374,-3.8362,-3.8358,-3.8352,-3.8331,-3.8358,-3.8362,-3.8284,-3.8309,-3.8276,-3.8272,-3.828,-3.8279,-3.8281,-3.8329,-3.8328,-3.8259,-3.8261,-3.8261,-3.8262,0,0,0,0,0,0,0,-3.8373,-3.8375,-3.8395,-3.8362,-3.8356,-3.8333,-3.8329,-3.8359,-3.8313,-3.8306,-3.8299,-3.8297,-3.8276,-3.8279,-3.828,-3.8328,-3.8259,-3.8261,-3.8262,-3.8263,-3.8439,-3.8443,0,0,0,0,0,0,-3.8381,-3.8375,-3.8395,-3.8394,-3.8355,-3.8336,-3.8332,-3.8341,-3.8312,-3.8305,-3.83,-3.8293,-3.8278,-3.8278,-3.8279,-3.8367,-3.8261,-3.8263,-3.8264,-3.8436,-3.844,-3.8444,0,0,0,0,0,0,-3.838,-3.8383,-3.8396,-3.8383,-3.8383,-3.834,-3.8351,-3.8342,-3.8345,-3.8307,-3.8299,-3.8311,-3.8275,-3.8276,-3.8318,-3.8365,-3.8264,-3.8266,-3.8432,-3.8437,-3.8442,-3.8545,0,0,0,0,0,0,-3.838,-3.8384,-3.8412,-3.8384,-3.8384,-3.8436,-3.8354,-3.8344,-3.8348,-3.8339,-3.8316,-3.8309,-3.8273,-3.8316,-3.832,-3.8366,-3.8268,-3.8427,-3.8434,-3.844,-3.8538,-3.8554,-3.8567,0,0,0,0,0,-3.8379,-3.8442,-3.8414,-3.8417,-3.8418,-3.8439,-3.8439,-3.8395,-3.8353,-3.8381,-3.8357,-3.831,-3.836,-3.8321,-3.8325,-3.8372,-3.8424,-3.8432,-3.844,-3.8531,-3.855,-3.8567,0,0,0,0,0,0,-3.8476,-3.8437,-3.8406,-3.8461,-3.8454,-3.8423,-3.8457,-3.8417,-3.8423,-3.8413,-3.836,-3.8356,-3.8406,-3.8394,-3.8351,-3.8446,-3.8384,-3.8393,-3.8452,-3.847,-3.8485,-3.8486,-3.8269,0,0,0,0,0,-3.8504,-3.8524,-3.8489,-3.8542,-3.854,-3.85,-3.8507,-3.8475,-3.8465,-3.8462,-3.8441,-3.8435,-3.8449,-3.8459,-3.847,-3.8536,-3.853,-3.8571,-3.8586,-3.8598,-3.8606,-3.8641,-3.8658,-3.847,-3.847,-3.8469,0,0,-3.8562,-3.8543,-3.8559,-3.8561,-3.8551,-3.8574,-3.8498,-3.8524,-3.8541,-3.8466,-3.8505,-3.849,-3.8479,-3.8534,-3.8557,-3.8525,-3.8657,-3.8608,-3.8618,-3.8619,-3.8651,-3.8669,-3.8684,-3.8475,-3.8474,-3.8473,0,0,-3.8678,-3.8666,-3.8708,-3.8701,-3.8688,-3.8662,-3.8672,-3.8648,-3.8635,-3.8673,-3.8618,-3.8638,-3.8663,-3.8658,-3.8658,-3.8776,-3.8732,-3.8781,-3.8858,-3.8892,-3.8907,-3.892,-3.8962,-3.8978,-3.879,-3.879,-3.879,0,-3.875,-3.8781,-3.8735,-3.8766,-3.8769,-3.8704,-3.8747,-3.8742,-3.8734,-3.8738,-3.8703,-3.8734,-3.8722,-3.8775,-3.8804,-3.8807,-3.8818,-3.8782,-3.8909,-3.8921,-3.8933,-3.8972,-3.8988,-3.8796,-3.8795,-3.8795,-3.8794,0,-3.8872,-3.8895,-3.8931,-3.8925,-3.8932,-3.897,-3.893,-3.8943,-3.8911,-3.8889,-3.8929,-3.8913,-3.892,-3.8931,-3.8899,-3.898,-3.8961,-3.8918,-3.8854,-3.8957,-3.8993,-3.9008,-3.8804,-3.8802,-3.8801,-3.8799,0,0,-3.9045,-3.9015,-3.9029,-3.9026,-3.9009,-3.9026,-3.9061,-3.9068,-3.9081,-3.9078,-3.9106,-3.9131,-3.9092,-3.9093,-3.9061,-3.9092,-3.9186,-3.9045,-3.9044,-3.9071,-3.9274,-3.9306,-3.9324,-3.9158,-3.9161,-3.9163,-3.9275,0,-3.9155,-3.9212,-3.9173,-3.9237,-3.9258,-3.9197,-3.9228,-3.9222,-3.9202,-3.9218,-3.9197,-3.9215,-3.9162,-3.9162,-3.919,-3.9169,-3.9226,-3.916,-3.9184,-3.9185,-3.9187,-3.9342,-3.9375,-3.9482,-3.9289,-3.9291,-3.9293,0,-3.9289,-3.9294,-3.936,-3.934,-3.9347,-3.9375,-3.938,-3.9395,-3.9387,-3.9371,-3.9374,-3.9335,-3.9369,-3.9308,-3.9354,-3.9311,-3.9318,-3.931,-3.9313,-3.9312,-3.9244,-3.9345,-3.9514,-3.953,-3.9315,-3.9313,-3.9311,0,-3.9408,-3.9431,-3.9473,-3.9473,-3.9451,-3.9472,-3.9464,-3.9453,-3.9461,-3.9465,-3.9469,-3.9478,-3.9482,-3.949,-3.9455,-3.9414,-3.9506,-3.9442,-3.9494,-3.9495,-3.9514,-3.9513,-3.9686,-3.9522,-3.9522,-3.9521,-3.9521,0,-3.9534,-3.9577,-3.9527,-3.9553,-3.96,-3.9556,-3.9603,-3.9589,-3.958,-3.9603,-3.9552,-3.9575,-3.9527,-3.9546,-3.9519,-3.9561,-3.9564,-3.9552,-3.9544,-3.9556,-3.9557,-3.9559,-3.955,-3.9525,-3.9524,-3.9524,-3.9523,0,-3.9673,-3.9642,-3.9684,-3.9661,-3.9656,-3.9692,-3.9672,-3.9696,-3.9674,-3.9704,-3.9709,-3.9675,-3.9694,-3.966,-3.9675,-3.9657,-3.9716,-3.9698,-3.9719,-3.9713,-3.9766,-3.9761,-3.9945,-3.9967,-3.979,-3.9792,-3.9793,0,-3.9755,-3.9786,-3.9767,-3.9779,-3.9774,-3.9794,-3.9801,-3.976,-3.977,-3.9765,-3.979,-3.9805,-3.9814,-3.9848,-3.9825,-3.9837,-3.9817,-3.9881,-3.9818,-3.9829,-3.9817,-3.9815,-3.9818,-3.9893,-3.9895,-3.9897,-3.9898,0,-3.9902,-3.9886,-3.9899,-3.9907,-3.9918,-3.9923,-3.9923,-3.9936,-3.9893,-3.9907,-3.9926,-3.9934,-3.995,-3.9966,-3.9972,-3.9964,-3.9925,-3.9919,-3.9931,-3.9942,-3.9953,-3.9948,-3.9753,-3.9914,-3.9912,-3.9911,-3.991,-3.991,-4.0014,-4.004,-4.0031,-4.0048,-4.0045,-4.0047,-4.0069,-4.0051,-4.0066,-4.0076,-4.0051,-4.0076,-4.007,-4.0074,-4.0071,-4.0091,-4.0062,-4.008,-4.0085,-4.009,-4.0098,-3.9952,-4.0092,-4.0091,-4.0091,-4.009,-4.009,0,-4.0159,-4.0151,-4.0167,-4.017,-4.0184,-4.0147,-4.0146,-4.016,-4.0183,-4.018,-4.0191,-4.0214,-4.023,-4.021,-4.0222,-4.0242,-4.0224,-4.0246,-4.0243,-4.0242,-4.0123,-4.011,-4.026,-4.026,-4.026,-4.026,-4.026,-4.026,-4.0235,-4.0277,-4.026,-4.03,-4.0292,-4.0316,-4.032,-4.0322,-4.032,-4.0348,-4.0361,-4.0348,-4.0338,-4.035,-4.0363,-4.0357,-4.0363,-4.0392,-4.0379,-4.0267,-4.0251,-4.0235,-4.0223,-4.0394,-4.0394,-4.0497,-4.0498,-4.0498]},{"header":{"parameterUnit":"m.s-1","parameterCategory":1,"la1":30.2991,"la2":30.254,"lo1":-89.0895,"lo2":-89.0444,"dy":0.0017,"dx":0.0017,"nx":28,"ny":28,"refTime":"2024-03-02T09:00:00:Z","depth":0,"parameterNumber":3,"parameterNumberName":"V-component_of_WINDS"},"data":[0,0,0,0,0,0,0,0,0,0,0,0,0,0,0,0,0,0,0,0,0,0,0,0,0,0,0,0,0,0,0,0,0,0,0,0,0,0,0,0,0,0,0,0,0,0,0,0,0,0,0,0,0,0,0,0,0,0,0.8099,0.8099,0,0.8103,0.8103,0.8103,0.8102,0.8102,0.8102,0.8102,0.8103,0.8103,0.8104,0,0,0,0,0,0,0,0,0,0,0,0,0,0.8091,0.8091,0.8099,0.8099,0.8099,0.8103,0.8103,0.8103,0.8102,0.8102,0.8102,0.8102,0.8103,0.8103,0.8104,0,0,0,0,0,0,0,0,0,0,0,0,0,0.8094,0.8091,0.8099,0.8099,0.8099,0.8103,0.8103,0.8103,0.8102,0.8102,0.8102,0.8102,0.8103,0.8103,0.8104,0.8107,0,0,0.8104,0.8104,0,0,0,0,0,0,0,0,0.8094,0.8095,0.8099,0.8099,0.8099,0.8102,0.8101,0.8104,0.8102,0.8101,0.8102,0.8102,0.8103,0.8103,0.8104,0.8107,0.8107,0.8104,0.8104,0.8104,0.8104,0,0,0,0,0,0,0,0.8094,0.8095,0.81,0.8099,0.8099,0.8099,0.8099,0.8101,0.8102,0.8101,0.8101,0.8101,0.8103,0.8104,0.8104,0.8107,0.8104,0.8104,0.8104,0.8104,0.8115,0.8115,0,0,0,0,0,0,0.8094,0.8094,0.81,0.8101,0.8096,0.8099,0.81,0.8101,0.8102,0.8102,0.8102,0.8101,0.8103,0.8104,0.8104,0.8109,0.8104,0.8104,0.8105,0.8115,0.8115,0.8115,0,0,0,0,0,0,0.8094,0.8094,0.81,0.8098,0.8098,0.8099,0.8101,0.8101,0.8102,0.8103,0.8103,0.8102,0.8103,0.8104,0.8107,0.8109,0.8105,0.8105,0.8115,0.8115,0.8115,0.8119,0,0,0,0,0,0,0.8093,0.8094,0.8095,0.8098,0.8098,0.8103,0.8101,0.8101,0.8103,0.8103,0.8103,0.8104,0.8103,0.8107,0.8107,0.8109,0.8105,0.8114,0.8115,0.8115,0.8119,0.8119,0.812,0,0,0,0,0,0.8093,0.8095,0.8095,0.8096,0.81,0.8103,0.8104,0.8104,0.8103,0.8104,0.8105,0.8103,0.8109,0.8107,0.8107,0.811,0.8114,0.8115,0.8115,0.8118,0.8119,0.812,0,0,0,0,0,0,0.8092,0.8095,0.8096,0.8099,0.8101,0.8103,0.8104,0.8104,0.8106,0.8106,0.8106,0.8106,0.811,0.811,0.8107,0.8114,0.8111,0.8112,0.8114,0.8115,0.8115,0.8115,0.8105,0,0,0,0,0,0.8092,0.8095,0.8098,0.81,0.8101,0.8103,0.8104,0.8105,0.8107,0.8107,0.8108,0.811,0.8112,0.8113,0.8115,0.8119,0.812,0.8121,0.8122,0.8122,0.8123,0.8127,0.8128,0.8117,0.8117,0.8117,0,0,0.8092,0.8095,0.8096,0.81,0.8102,0.8105,0.8103,0.8106,0.8109,0.8107,0.8111,0.8112,0.8114,0.8118,0.8119,0.8118,0.8126,0.8123,0.8123,0.8123,0.8127,0.8128,0.8129,0.8117,0.8117,0.8117,0,0,0.8094,0.8096,0.8099,0.8102,0.8105,0.8106,0.8107,0.811,0.8111,0.8115,0.8115,0.8118,0.8121,0.8123,0.8124,0.813,0.813,0.8131,0.8134,0.8138,0.8139,0.814,0.8143,0.8144,0.8131,0.8131,0.8131,0,0.8094,0.8099,0.81,0.8104,0.8106,0.8107,0.8111,0.8113,0.8116,0.8118,0.8117,0.8123,0.8124,0.8129,0.8131,0.8132,0.8133,0.8131,0.8139,0.814,0.814,0.8144,0.8145,0.8132,0.8131,0.8131,0.8131,0,0.8099,0.8102,0.8105,0.811,0.8112,0.8116,0.8118,0.8121,0.8122,0.8124,0.8128,0.813,0.8134,0.8135,0.8135,0.8141,0.814,0.8139,0.8136,0.8142,0.8145,0.8146,0.8132,0.8132,0.8132,0.8132,0,0,0.8098,0.8106,0.8107,0.8111,0.8116,0.8118,0.8123,0.8127,0.813,0.8133,0.8137,0.8141,0.8141,0.8143,0.8143,0.8146,0.8153,0.8145,0.8145,0.8147,0.8162,0.8163,0.8165,0.8153,0.8153,0.8153,0.8162,0,0.8102,0.811,0.8113,0.812,0.8124,0.8126,0.813,0.8134,0.8136,0.814,0.8142,0.8146,0.8144,0.8146,0.8149,0.8152,0.8156,0.8151,0.8157,0.8157,0.8157,0.8166,0.8167,0.8175,0.8163,0.8163,0.8163,0,0.8106,0.8111,0.8119,0.8126,0.8128,0.8131,0.8137,0.814,0.8145,0.8147,0.815,0.8151,0.8156,0.8154,0.8162,0.8158,0.8161,0.8163,0.8163,0.8164,0.8161,0.8168,0.8177,0.8179,0.8165,0.8165,0.8165,0,0.8106,0.8115,0.8121,0.8124,0.8132,0.8135,0.8138,0.8143,0.8146,0.8151,0.8153,0.8158,0.8161,0.8165,0.8168,0.8165,0.8176,0.8173,0.8178,0.8178,0.8179,0.8179,0.8191,0.818,0.818,0.818,0.818,0,0.811,0.8115,0.8122,0.8126,0.8132,0.8136,0.8142,0.8145,0.815,0.8155,0.8157,0.8161,0.8164,0.8169,0.8171,0.8178,0.8179,0.8181,0.8181,0.8181,0.8181,0.8183,0.8183,0.8181,0.8181,0.8181,0.8181,0,0.8111,0.8116,0.8123,0.8131,0.8133,0.8138,0.8144,0.8149,0.8152,0.8158,0.816,0.8165,0.8171,0.8175,0.8182,0.8183,0.8192,0.8191,0.819,0.8191,0.8196,0.8196,0.8209,0.8212,0.8199,0.8199,0.8199,0,0.8113,0.8117,0.8127,0.8131,0.8135,0.8141,0.8145,0.8149,0.8154,0.8161,0.8165,0.8172,0.8177,0.8187,0.8192,0.8198,0.8198,0.8203,0.8199,0.8199,0.82,0.82,0.8201,0.8203,0.8203,0.8203,0.8203,0,0.8117,0.812,0.8126,0.8134,0.814,0.8146,0.8152,0.8155,0.8161,0.8165,0.8173,0.8178,0.8187,0.8194,0.8201,0.8204,0.8205,0.8205,0.8206,0.8206,0.8206,0.8207,0.8193,0.8204,0.8204,0.8204,0.8204,0.8204,0.8119,0.8124,0.8132,0.8139,0.8145,0.8151,0.8157,0.8162,0.8168,0.8177,0.8179,0.8187,0.8194,0.8204,0.8208,0.8214,0.8213,0.8215,0.8216,0.8216,0.8217,0.8205,0.8215,0.8215,0.8215,0.8215,0.8215,0,0.8124,0.813,0.8137,0.8146,0.8153,0.8155,0.8162,0.8167,0.8175,0.8182,0.8188,0.8198,0.8205,0.8211,0.8219,0.8223,0.8224,0.8225,0.8225,0.8226,0.8217,0.8215,0.8225,0.8225,0.8225,0.8225,0.8225,0.8225,0.8127,0.8136,0.814,0.8152,0.8158,0.8167,0.8172,0.8178,0.8183,0.8195,0.8202,0.8206,0.8213,0.8221,0.8229,0.823,0.8234,0.8235,0.8237,0.8228,0.8227,0.8226,0.8224,0.8235,0.8235,0.8245,0.8246,0.8246]}]]